Date String (YYYY-MM-DD hh:mm:ss) UTC,Instrument flags,Ambient pressure (hPa),Sample flow (lpm),Bypass flow (lpm),Sample temperature (°C),Ambient temperature (°C),ASC tube jacket temperature (°C),LED temperature (°C),Box temperature (°C),Sample RH (%),Span deviation,Mass concentration (μg/m³),Mass concentration (μg/m³),Mass concentration (μg/m³)
DateTimeUTC,F1_M11,P_M11,Q1_M11,Q2_M11,T1_M11,T2_M11,T3_M11,T4_M11,T5_M11,U1_M11,ZSPAN_M11,X0_M11,X2_M11,X1_M11
2022-03-01 02:00:00,,0828.0,5.00,0.00,28.1,27.5,00.0,37.1,30.0,05.5,0000.0,0002.67,0000.75,0000.53
2022-03-01 02:01:00,,0828.0,5.00,0.00,28.1,27.5,00.0,37.1,30.0,05.5,0000.0,0002.65,0000.74,0000.52
2022-03-01 02:02:00,,0828.0,4.99,0.00,28.2,27.5,00.0,37.1,30.0,05.5,0000.0,0003.00,0000.73,0000.51
2022-03-01 02:03:00,,0828.0,5.00,0.00,28.2,27.6,00.0,37.1,30.0,05.5,0000.0,0003.17,0000.72,0000.50
2022-03-01 02:04:00,,0828.0,5.00,0.00,28.2,27.6,00.0,37.1,30.0,05.5,0000.0,0003.06,0000.72,0000.50
2022-03-01 02:05:00,,0828.0,4.99,0.00,28.2,27.6,00.0,37.1,30.1,05.6,0000.0,0002.48,0000.71,0000.50
2022-03-01 02:06:00,,0828.0,5.00,0.00,28.3,27.6,00.0,37.2,30.1,05.7,0000.0,0002.51,0000.72,0000.49
2022-03-01 02:07:00,,0828.1,5.00,0.00,28.3,27.6,00.0,37.2,30.1,05.7,0000.0,0002.42,0000.72,0000.49
2022-03-01 02:08:00,,0828.0,4.99,0.00,28.3,27.6,00.0,37.2,30.1,05.7,0000.0,0002.30,0000.72,0000.49
2022-03-01 02:09:00,,0828.0,4.99,0.00,28.3,27.6,00.0,37.2,30.1,05.8,0000.0,0002.42,0000.75,0000.50
2022-03-01 02:10:00,,0828.1,5.00,0.00,28.3,27.6,00.0,37.2,30.1,05.9,0000.0,0002.50,0000.80,0000.50
2022-03-01 02:11:00,,0828.0,5.00,0.00,28.3,27.7,00.0,37.2,30.1,06.1,0000.0,0002.51,0000.79,0000.50
2022-03-01 02:12:00,,0828.1,5.01,0.00,28.3,27.7,00.0,37.2,30.1,06.2,0000.0,0002.50,0000.79,0000.50
2022-03-01 02:13:00,,0828.1,5.00,0.00,28.3,27.7,00.0,37.3,30.0,06.3,0000.0,0002.20,0000.80,0000.50
2022-03-01 02:14:00,,0828.1,4.99,0.00,28.3,27.7,00.0,37.3,30.0,06.4,0000.0,0002.02,0000.82,0000.50
2022-03-01 02:15:00,,0828.2,4.99,0.00,28.3,27.6,00.0,37.3,30.1,06.5,0000.0,0001.46,0000.79,0000.49
2022-03-01 02:16:00,,0828.1,5.01,0.00,28.3,27.6,00.0,37.3,30.1,06.5,0000.0,0001.46,0000.79,0000.50
2022-03-01 02:17:00,,0828.1,5.01,0.00,28.3,27.6,00.0,37.3,30.1,06.4,0000.0,0001.39,0000.77,0000.49
2022-03-01 02:18:00,,0828.1,5.00,0.00,28.3,27.6,00.0,37.3,30.1,06.3,0000.0,0001.35,0000.76,0000.49
2022-03-01 02:19:00,,0828.1,5.01,0.00,28.3,27.6,00.0,37.3,30.0,06.4,0000.0,0001.33,0000.74,0000.48
2022-03-01 02:20:00,,0828.2,5.00,0.00,28.3,27.6,00.0,37.3,30.0,06.5,0000.0,0001.30,0000.72,0000.47
2022-03-01 02:21:00,,0828.1,5.00,0.00,28.3,27.6,00.0,37.3,30.0,06.4,0000.0,0001.22,0000.68,0000.46
2022-03-01 02:22:00,,0828.2,4.99,0.00,28.2,27.5,00.0,37.3,30.0,06.4,0000.0,0001.53,0000.65,0000.44
2022-03-01 02:23:00,,0828.1,4.99,0.00,28.2,27.5,00.0,37.3,30.0,06.5,0000.0,0002.02,0000.64,0000.44
2022-03-01 02:24:00,,0828.2,4.99,0.00,28.2,27.5,00.0,37.3,29.9,06.5,0000.0,0002.11,0000.63,0000.43
2022-03-01 02:25:00,,0828.1,5.00,0.00,28.2,27.4,00.0,37.3,29.9,06.5,0000.0,0002.18,0000.63,0000.43
2022-03-01 02:26:00,,0828.2,5.01,0.00,28.2,27.4,00.0,37.3,29.8,06.4,0000.0,0002.16,0000.62,0000.43
2022-03-01 02:27:00,,0828.3,5.00,0.00,28.1,27.3,00.0,37.2,29.8,06.3,0000.0,0002.20,0000.61,0000.42
2022-03-01 02:28:00,,0828.2,5.01,0.00,28.1,27.3,00.0,37.2,29.8,06.3,0000.0,0002.22,0000.59,0000.42
2022-03-01 02:29:00,,0828.2,5.00,0.00,28.1,27.3,00.0,37.2,29.8,06.2,0000.0,0002.20,0000.58,0000.41
2022-03-01 02:30:00,,0828.2,5.00,0.00,28.1,27.4,00.0,37.2,29.8,06.2,0000.0,0002.25,0000.60,0000.41
2022-03-01 02:31:00,,0828.1,5.00,0.00,28.1,27.3,00.0,37.2,29.8,06.4,0000.0,0002.25,0000.59,0000.41
2022-03-01 02:32:00,,0828.2,5.00,0.00,28.1,27.3,00.0,37.2,29.8,06.4,0000.0,0002.36,0000.57,0000.40
2022-03-01 02:33:00,,0828.4,5.01,0.00,28.1,27.3,00.0,37.2,29.8,06.5,0000.0,0001.99,0000.55,0000.40
2022-03-01 02:34:00,,0828.2,5.00,0.00,28.1,27.3,00.0,37.2,29.8,06.6,0000.0,0001.43,0000.56,0000.41
2022-03-01 02:35:00,,0828.2,5.00,0.00,28.1,27.3,00.0,37.2,29.8,06.2,0000.0,0001.31,0000.56,0000.41
2022-03-01 02:36:00,,0828.3,4.99,0.00,28.0,27.3,00.0,37.2,29.7,06.0,0000.0,0001.18,0000.53,0000.41
2022-03-01 02:37:00,,0828.2,5.00,0.00,28.0,27.3,00.0,37.2,29.7,05.9,0000.0,0001.26,0000.55,0000.41
2022-03-01 02:38:00,,0828.2,5.00,0.00,28.0,27.3,00.0,37.2,29.8,05.7,0000.0,0001.24,0000.55,0000.41
2022-03-01 02:39:00,,0828.3,5.01,0.00,28.0,27.3,00.0,37.1,29.8,05.7,0000.0,0001.19,0000.56,0000.42
2022-03-01 02:40:00,,0828.3,5.00,0.00,28.0,27.3,00.0,37.1,29.7,05.7,0000.0,0001.19,0000.57,0000.42
2022-03-01 02:41:00,,0828.3,5.00,0.00,28.0,27.3,00.0,37.1,29.8,05.8,0000.0,0001.22,0000.59,0000.43
2022-03-01 02:42:00,,0828.3,4.99,0.00,28.0,27.3,00.0,37.1,29.8,05.7,0000.0,0001.21,0000.62,0000.43
2022-03-01 02:43:00,,0828.1,5.00,0.00,28.0,27.3,00.0,37.1,29.8,05.8,0000.0,0000.97,0000.63,0000.44
2022-03-01 02:44:00,,0828.2,5.00,0.00,28.0,27.3,00.0,37.1,29.8,06.0,0000.0,0000.98,0000.64,0000.45
2022-03-01 02:45:00,,0828.2,5.01,0.00,28.0,27.3,00.0,37.1,29.8,06.0,0000.0,0001.03,0000.66,0000.45
2022-03-01 02:46:00,,0828.2,5.00,0.00,28.0,27.3,00.0,37.1,29.7,06.0,0000.0,0001.06,0000.67,0000.45
2022-03-01 02:47:00,,0828.3,5.00,0.00,28.0,27.2,00.0,37.1,29.7,06.2,0000.0,0001.12,0000.70,0000.46
2022-03-01 02:48:00,,0828.3,5.00,0.00,28.0,27.3,00.0,37.1,29.7,05.9,0000.0,0001.09,0000.71,0000.48
2022-03-01 02:49:00,,0828.3,5.00,0.00,28.0,27.3,00.0,37.1,29.7,05.9,0000.0,0001.06,0000.70,0000.48
2022-03-01 02:50:00,,0828.3,5.00,0.00,28.0,27.3,00.0,37.1,29.7,05.9,0000.0,0001.06,0000.69,0000.47
2022-03-01 02:51:00,,0828.3,4.99,0.00,28.0,27.3,00.0,37.1,29.8,06.1,0000.0,0001.17,0000.73,0000.47
2022-03-01 02:52:00,,0828.2,5.00,0.00,28.0,27.3,00.0,37.1,29.7,06.1,0000.0,0001.16,0000.71,0000.48
2022-03-01 02:53:00,,0828.2,5.00,0.00,28.0,27.3,00.0,37.1,29.7,06.0,0000.0,0001.12,0000.69,0000.48
2022-03-01 02:54:00,,0828.2,5.02,0.00,28.0,27.2,00.0,37.1,29.7,06.1,0000.0,0001.11,0000.68,0000.47
2022-03-01 02:55:00,,0828.2,5.00,0.00,28.0,27.2,00.0,37.1,29.7,06.0,0000.0,0001.23,0000.72,0000.47
2022-03-01 02:56:00,,0828.3,5.00,0.00,27.9,27.1,00.0,37.0,29.6,05.9,0000.0,0001.24,0000.70,0000.47
2022-03-01 02:57:00,,0828.3,5.01,0.00,27.9,27.1,00.0,37.0,29.5,06.3,0000.0,0001.37,0000.74,0000.47
2022-03-01 02:58:00,,0828.3,5.00,0.00,27.9,27.1,00.0,37.0,29.6,06.2,0000.0,0001.36,0000.74,0000.45
2022-03-01 02:59:00,,0828.4,4.99,0.00,27.9,27.1,00.0,37.0,29.6,06.0,0000.0,0001.43,0000.73,0000.44
